GW7043 Weather Reports


time (UTC)temp
F
wind
direction
speed
knots
gust
knots
rain 1hr
in
rain 24hr
in
rain mn
in
humidity
%
barometer
mb
20260504221143 77 252 3.5 9.6 0.00 0.00 0.00 31 1014.5
20260504220638 77 222 5.2 5.2 0.00 0.00 0.00 33 1014.5
20260504220137 77 195 3.5 7.0 0.00 0.00 0.00 32 1014.4
20260504215632 77 151 2.6 3.5 0.00 0.00 0.00 31 1014.5
20260504215130 77 192 3.5 6.1 0.00 0.00 0.00 32 1014.3
20260504214626 77 226 3.5 5.2 0.00 0.00 0.00 34 1014.5
20260504214122 77 229 3.5 4.3 0.00 0.00 0.00 36 1014.5
20260504213619 77 201 2.6 4.3 0.00 0.00 0.00 33 1014.3
20260504213116 77 162 2.6 3.5 0.00 0.00 0.00 33 1014.5
20260504212612 77 168 1.7 2.6 0.00 0.00 0.00 34 1014.4
20260504212109 78 194 5.2 6.1 0.00 0.00 0.00 33 1014.3
20260504211606 77 180 2.6 3.5 0.00 0.00 0.00 34 1014.2
20260504211103 77 182 2.6 3.5 0.00 0.00 0.00 34 1014.5
20260504210600 77 180 1.7 3.5 0.00 0.00 0.00 32 1014.2
20260504210056 78 243 1.7 4.3 0.00 0.00 0.00 30 1014.5
20260504205554 78 156 3.5 4.3 0.00 0.00 0.00 32 1014.7
20260504205052 78 205 2.6 6.1 0.00 0.00 0.00 33 1014.7
20260504204550 77 189 1.7 5.2 0.00 0.00 0.00 33 1014.6
20260504204049 77 231 0.0 2.6 0.00 0.00 0.00 33 1014.7
20260504203547 77 186 0.9 3.5 0.00 0.00 0.00 31 1014.7
20260504203044 78 182 4.3 4.3 0.00 0.00 0.00 32 1014.7
20260504202539 78 259 0.0 3.5 0.00 0.00 0.00 31 1014.9
20260504202036 78 241 3.5 7.0 0.00 0.00 0.00 32 1014.9
20260504201533 78 180 3.5 5.2 0.00 0.00 0.00 34 1014.9
20260504201031 78 205 1.7 3.5 0.00 0.00 0.00 34 1014.9
20260504200527 77 204 3.5 6.1 0.00 0.00 0.00 33 1015.0
20260504200024 77 180 1.7 5.2 0.00 0.00 0.00 33 1015.1
20260504195520 77 221 4.3 5.2 0.00 0.00 0.00 34 1015.3
20260504195017 76 232 3.5 4.3 0.00 0.00 0.00 33 1015.2
20260504194513 76 205 4.3 4.3 0.00 0.00 0.00 33 1015.2
20260504194009 77 213 5.2 6.1 0.00 0.00 0.00 32 1015.3
20260504193506 77 157 2.6 3.5 0.00 0.00 0.00 32 1015.2
20260504193005 77 210 7.8 7.8 0.00 0.00 0.00 33 1015.4
20260504192502 77 180 1.7 2.6 0.00 0.00 0.00 34 1015.7
20260504192000 76 157 3.5 5.2 0.00 0.00 0.00 35 1015.6
20260504191458 77 163 2.6 5.2 0.00 0.00 0.00 34 1015.4
20260504190953 77 213 1.7 4.3 0.00 0.00 0.00 33 1015.5
20260504190449 77 147 2.6 4.3 0.00 0.00 0.00 32 1015.9
20260504185946 77 226 2.6 4.3 0.00 0.00 0.00 34 1015.9
20260504185443 77 229 5.2 5.2 0.00 0.00 0.00 35 1016.0
20260504184939 77 237 1.7 3.5 0.00 0.00 0.00 35 1016.0
20260504184435 77 167 3.5 5.2 0.00 0.00 0.00 35 1016.0
20260504183931 77 246 0.9 4.3 0.00 0.00 0.00 34 1016.1
20260504183428 77 219 1.7 4.3 0.00 0.00 0.00 34 1016.1
20260504182926 77 187 2.6 3.5 0.00 0.00 0.00 36 1016.3
20260504182423 77 219 3.5 4.3 0.00 0.00 0.00 36 1016.1
20260504181920 77 165 2.6 2.6 0.00 0.00 0.00 37 1016.4
20260504181417 77 229 1.7 3.5 0.00 0.00 0.00 38 1016.3
20260504180916 76 163 1.7 2.6 0.00 0.00 0.00 35 1016.5
20260504180414 75 168 3.5 4.3 0.00 0.00 0.00 37 1016.7
20260504175912 75 218 2.6 4.3 0.00 0.00 0.00 37 1016.8
20260504175409 75 221 3.5 7.8 0.00 0.00 0.00 36 1016.8
20260504174907 75 254 2.6 5.2 0.00 0.00 0.00 37 1016.8
20260504174404 75 139 0.9 4.3 0.00 0.00 0.00 38 1016.8
20260504173901 75 174 3.5 4.3 0.00 0.00 0.00 38 1017.0
20260504173357 75 232 2.6 3.5 0.00 0.00 0.00 38 1016.8
20260504172855 75 207 1.7 4.3 0.00 0.00 0.00 38 1017.1
20260504172351 75 218 2.6 5.2 0.00 0.00 0.00 38 1017.1
20260504171847 76 223 1.7 3.5 0.00 0.00 0.00 38 1017.0
20260504171344 75 195 1.7 3.5 0.00 0.00 0.00 39 1017.1
20260504170842 75 178 1.7 3.5 0.00 0.00 0.00 42 1017.0
20260504170338 74 182 1.7 2.6 0.00 0.00 0.00 40 1017.2
20260504160256 70 205 5.2 9.6 0.00 0.00 0.00 42 1017.7
20260504150722 68 240 0.9 3.5 0.00 0.00 0.00 44 1018.4
20260504150219 68 218 2.6 3.5 0.00 0.00 0.00 45 1018.6
20260504141148 62 184 3.5 4.3 0.00 0.00 0.00 60 1018.7
20260504140645 62 215 2.6 2.6 0.00 0.00 0.00 62 1018.7
20260504140140 61 229 1.7 2.6 0.00 0.00 0.00 61 1018.8
20260504130609 53 315 0.0 1.7 0.00 0.00 0.00 79 1018.5
20260504130105 52 325 0.0 0.9 0.00 0.00 0.00 82 1018.6
20260504110456 43 210 0.9 1.7 0.00 0.00 0.00 92 1017.8
20260504100418 42 212 1.7 1.7 0.00 0.00 0.00 92 1017.6
20260504081811 44 194 1.7 1.7 0.00 0.00 0.00 91 1018.0
20260504081309 44 192 1.7 1.7 0.00 0.00 0.00 91 1017.8
20260504080804 44 248 0.9 1.7 0.00 0.00 0.00 91 1018.0
20260504080301 44 243 1.7 1.7 0.00 0.00 0.00 91 1017.8
20260504070229 45 185 1.7 1.7 0.00 0.00 0.00 89 1018.1
20260504060149 46 204 0.9 1.7 0.00 0.00 0.00 88 1018.1
20260504050617 48 219 0.9 1.7 0.00 0.00 0.00 86 1018.5
20260504050114 48 202 1.7 1.7 0.00 0.00 0.00 86 1018.9
20260504045611 48 206 1.7 1.7 0.00 0.00 0.00 86 1018.7
20260504045106 48 187 1.7 1.7 0.00 0.00 0.00 85 1018.6
20260504044604 49 181 0.0 1.7 0.00 0.00 0.00 84 1018.8
20260504044100 49 186 0.9 0.9 0.00 0.00 0.00 84 1018.8
20260504043558 50 207 0.0 0.9 0.00 0.00 0.00 82 1018.9
20260504043055 50 200 0.9 1.7 0.00 0.00 0.00 83 1018.9
20260504042552 50 184 0.9 1.7 0.00 0.00 0.00 82 1018.9
20260504042049 50 223 1.7 1.7 0.00 0.00 0.00 82 1018.9
20260504041545 50 186 0.9 1.7 0.00 0.00 0.00 82 1018.8
20260504041041 50 190 0.9 0.9 0.00 0.00 0.00 81 1018.8
20260504040539 50 185 0.9 1.7 0.00 0.00 0.00 81 1018.8
20260504040035 50 232 0.0 1.7 0.00 0.00 0.00 81 1018.8
20260504035532 50 224 0.0 1.7 0.00 0.00 0.00 81 1018.9
20260504035028 50 214 1.7 1.7 0.00 0.00 0.00 82 1018.9
20260504034526 50 179 0.9 1.7 0.00 0.00 0.00 82 1018.9
20260504034023 50 203 1.7 1.7 0.00 0.00 0.00 82 1018.8
20260504033521 51 174 0.9 0.9 0.00 0.00 0.00 81 1018.9
20260504033018 51 184 0.9 1.7 0.00 0.00 0.00 80 1018.9
20260504032515 51 215 1.7 1.7 0.00 0.00 0.00 79 1018.8
20260504032012 52 251 0.0 1.7 0.00 0.00 0.00 77 1018.8
20260504031509 52 219 1.7 1.7 0.00 0.00 0.00 77 1018.9
20260504031005 52 216 0.9 1.7 0.00 0.00 0.00 78 1018.9
20260504030503 52 214 1.7 1.7 0.00 0.00 0.00 78 1018.7
20260504025958 52 223 0.9 1.7 0.00 0.00 0.00 78 1018.8
20260504025455 52 203 1.7 1.7 0.00 0.00 0.00 77 1018.5
20260504024952 53 192 0.9 1.7 0.00 0.00 0.00 76 1018.6
20260504024449 53 188 1.7 1.7 0.00 0.00 0.00 75 1018.7
20260504023946 53 235 0.9 1.7 0.00 0.00 0.00 73 1018.7
20260504023443 54 204 0.9 1.7 0.00 0.00 0.00 73 1018.7
20260504022938 54 210 1.7 1.7 0.00 0.00 0.00 71 1018.6
20260504022435 54 231 1.7 1.7 0.00 0.00 0.00 71 1018.6
20260504021931 55 204 0.0 1.7 0.00 0.00 0.00 71 1018.4
20260504021429 55 203 1.7 1.7 0.00 0.00 0.00 68 1018.3
20260504020926 55 274 0.0 1.7 0.00 0.00 0.00 66 1018.4
20260504020422 55 201 1.7 1.7 0.00 0.00 0.00 66 1018.3
20260504015919 55 238 0.0 1.7 0.00 0.00 0.00 65 1018.3
20260504015415 56 223 1.7 1.7 0.00 0.00 0.00 65 1018.0
20260504014911 56 263 0.9 1.7 0.00 0.00 0.00 64 1018.1
20260504014407 56 204 1.7 1.7 0.00 0.00 0.00 64 1018.0
20260504013904 57 233 1.7 1.7 0.00 0.00 0.00 62 1017.8
20260504013403 57 258 0.0 1.7 0.00 0.00 0.00 63 1017.8
20260504012859 57 232 0.0 1.7 0.00 0.00 0.00 59 1017.9
20260504012357 57 252 0.9 1.7 0.00 0.00 0.00 60 1017.3
20260504011854 58 219 0.9 2.6 0.00 0.00 0.00 63 1017.5
20260504011350 58 230 0.9 1.7 0.00 0.00 0.00 58 1017.7
20260504010846 58 251 1.7 2.6 0.00 0.00 0.00 57 1017.6
20260504010342 59 249 1.7 1.7 0.00 0.00 0.00 61 1017.5
20260504005839 59 189 0.9 1.7 0.00 0.00 0.00 61 1017.6
20260504005336 60 211 1.7 1.7 0.00 0.00 0.00 58 1017.5
20260504004833 61 334 1.7 1.7 0.00 0.00 0.00 59 1017.3
20260504004331 61 218 1.7 1.7 0.00 0.00 0.00 56 1017.7
20260504003827 61 253 0.0 0.9 0.00 0.00 0.00 52 1017.2
20260504003324 62 248 0.0 0.0 0.00 0.00 0.00 50 1017.2
20260504002821 63 204 0.0 1.7 0.00 0.00 0.00 52 1017.1
20260504002317 64 205 1.7 1.7 0.00 0.00 0.00 51 1017.1
20260504001815 64 226 1.7 1.7 0.00 0.00 0.00 48 1017.1
20260504001312 65 285 0.0 0.9 0.00 0.00 0.00 46 1017.0
20260504000809 66 184 0.0 1.7 0.00 0.00 0.00 46 1017.1
20260504000306 66 224 0.0 0.9 0.00 0.00 0.00 41 1017.1
20260503235804 67 193 0.9 1.7 0.00 0.00 0.00 40 1016.9
20260503235301 67 231 0.9 0.9 0.00 0.00 0.00 38 1017.1
20260503234759 68 253 0.0 1.7 0.00 0.00 0.00 36 1017.0
20260503234256 68 244 1.7 1.7 0.00 0.00 0.00 35 1017.0
20260503233754 68 234 1.7 1.7 0.00 0.00 0.00 34 1017.0
20260503233249 68 262 0.9 0.9 0.00 0.00 0.00 33 1017.1
20260503232746 69 242 1.7 1.7 0.00 0.00 0.00 32 1017.0
20260503232244 69 209 0.9 1.7 0.00 0.00 0.00 33 1017.0
20260503231742 69 288 0.9 1.7 0.00 0.00 0.00 35 1016.8
20260503231238 69 219 2.6 3.5 0.00 0.00 0.00 34 1017.0
20260503230734 69 210 2.6 5.2 0.00 0.00 0.00 34 1016.9
20260503230232 69 214 3.5 5.2 0.00 0.00 0.00 33 1017.0
20260503225729 69 221 2.6 5.2 0.00 0.00 0.00 34 1016.9
20260503225229 70 211 2.6 5.2 0.00 0.00 0.00 33 1017.0
20260503224726 70 252 2.6 3.5 0.00 0.00 0.00 35 1017.1
20260503224224 70 297 0.0 2.6 0.00 0.00 0.00 37 1017.1
20260503223721 70 215 4.3 5.2 0.00 0.00 0.00 34 1017.0
20260503223219 70 217 0.0 1.7 0.00 0.00 0.00 34 1016.9
20260503222715 71 216 1.7 2.6 0.00 0.00 0.00 33 1017.0
20260503222213 71 290 1.7 3.5 0.00 0.00 0.00 34 1017.1
20260503221711 71 191 2.6 5.2 0.00 0.00 0.00 34 1017.3